Location: Brno
(49.2000°N, 16.6330°E)
Time: 01:07:01
(UTC+02:00)

Transit 4A - Pass Details

Date: 31 July 2021
Orbit: 870 x 974 km, 66.8° (Epoch: 26 September)

Event Time Altitude Azimuth Distance (km) Brightness Sun altitude
Rises 09:20:11 0° 324° (NW) 3,472 10.5 36.4°
Reaches altitude 10° 09:22:40 10° 325° (NW) 2,536 9.9 36.8°
Maximum altitude 09:28:33 85° 55° (NE) 896 8.6 37.7°
Drops below altitude 10° 09:34:31 10° 144° (SE) 2,573 11.1 38.6°
Sets 09:37:02 0° 145° (SE) 3,526 11.6 39.0°
